Location: Charnavas
(44.3558°N, 3.9851°E)
Time: 15:09:19
(UTC+00:00)

Daily predictions for brighter satellites

Satellite Brightness Start Highest point End
(mag) Time Altitude Azimuth Time Altitude Azimuth Time Altitude Azimuth
Cosmos 1486 Rocket 4.3 17:54:53 10° NNW 18:00:03 50° ENE 18:05:12 10° SE
Cosmos 1515 4.3 17:57:07 10° N 18:00:38 34° ENE 18:04:07 10° SE
Okean 1 4.0 17:57:01 10° N 18:00:43 34° ENE 18:04:25 10° SE
USA 234 4.2 17:55:23 10° ENE 18:00:47 27° SE 18:06:10 10° S
Cosmos 1633 Rocket 3.2 17:57:31 10° S 18:01:48 54° E 18:06:08 10° NNE
Cosmos 2184 Rocket 4.0 17:55:47 10° S 18:01:51 65° E 18:08:00 10° NNE
Cosmos 1939 Rocket 4.0 17:59:00 10° S 18:02:44 48° W 18:06:29 10° NNW
SeaSat 1 3.3 17:59:31 10° NE 18:03:46 28° ESE 18:07:59 10° SSE
Cosmos 1707 Rocket 3.5 17:59:55 10° N 18:04:19 83° E 18:08:40 10° S
CZ-4 R/B 1.3 18:03:59 10° SSE 18:07:45 58° ENE 18:11:36 10° N
H-2A R/B 2.2 18:02:26 10° SSE 18:07:47 62° ENE 18:13:10 10° N
CZ-2C R/B 3.4 18:04:05 10° NNE 18:08:53 30° E 18:13:33 10° SSE
SAR-Lupe-4 4.3 18:08:14 10° NNE 18:11:29 32° E 18:14:42 10° SSE
IRS-1C Rocket 4.1 18:06:20 10° SSE 18:11:35 80° ENE 18:16:53 10° NNW
Gbstr 26 Del rocket 4.2 18:08:39 10° W 18:12:43 40° NNW 18:17:39 10° ENE
Meteor 1-20 Rocket 4.1 18:08:37 10° S 18:14:03 81° E 18:19:35 10° NNE
Cosmos 1302 Rocket 4.4 18:09:19 10° SSW 18:14:28 69° WNW 18:19:41 10° NNE
SL-4 R/B 3.2 18:12:36 10° NW 18:15:37 25° N 18:18:31 10° ENE
ATLAS CENTAUR R/B 1.7 18:19:48 10° S 18:23:08 35° ESE 18:26:29 10° NE
FALCON 9 DEB 4.1 18:20:39 10° NW 18:23:47 33° NNE 18:26:13 15° E
Cosmos 1354 Rocket 4.4 18:21:43 10° N 18:26:44 43° ENE 18:31:41 10° SE
Okean-O 2.6 18:23:09 10° SSE 18:27:34 80° ENE 18:32:01 10° N
Cosmos 44 Rocket 3.4 18:22:44 10° NNW 18:28:00 82° NE 18:33:12 10° SE
ERS-2 2.1 18:25:12 10° NNE 18:28:49 58° ESE 18:32:25 10° S
CSL-04 Rocket 3.9 18:23:36 10° SE 18:28:58 53° ENE 18:34:19 10° N
CSL-04 Debris 4.2 18:24:59 10° SSE 18:30:18 58° ENE 18:35:40 10° N
Cosmos 1844 Rocket 3.0 18:25:03 10° NNW 18:30:21 43° ENE 18:35:39 10° SE
Cosmos 2084 Rocket 3.5 18:26:02 10° NNW 18:30:22 63° NE 18:34:49 10° SE
SAR-Lupe-1 4.1 18:27:25 10° NNE 18:30:58 58° ESE 18:34:30 10° S
Cosmos 1666 3.8 18:30:15 10° SE 18:33:07 22° E 18:36:02 10° NE
Cosmos 1271 Rocket 4.2 18:31:13 10° NNW 18:34:43 39° W 18:38:13 10° SSW
HJ-1C 3.3 18:32:14 10° SSE 18:35:32 67° ENE 18:38:49 10° N
Cosmos 2341 Rocket 4.3 18:31:05 10° SSE 18:36:59 43° E 18:42:51 10° NNE
Cosmos 1503 Rocket 4.0 18:31:52 10° NNW 18:37:01 59° ENE 18:42:06 10° SSE
PSLV R/B 4.0 18:35:50 10° NNE 18:39:57 82° WNW 18:44:00 10° SSW
Cosmos 1470 Rocket 3.5 18:36:32 10° S 18:41:00 81° E 18:45:27 10° N
Cosmos 1844 4.1 18:36:38 10° NNW 18:42:11 45° ENE 18:46:58 13° SE
Cosmos 2360 Rocket 2.2 18:37:56 10° S 18:43:29 62° ESE 18:49:04 10° NNE
CZ-4B R/B 3.9 18:41:18 10° NNW 18:43:48 23° WNW 18:46:18 10° SW
Ariane Rocket 4.0 18:42:04 18° ESE 18:44:33 26° ENE 18:48:41 10° N
Cosmos 2278 Rocket 3.9 18:43:57 10° N 18:47:06 15° NE 18:48:35 14° ENE
Meteor 1-19 Rocket 4.5 18:43:59 10° NNW 18:49:56 77° W 18:55:41 10° S
Cosmos 1500 3.0 18:48:00 10° S 18:51:43 81° E 18:55:28 10° N
Cosmos 2333 Rocket 2.8 18:48:46 10° SSE 18:53:43 32° ESE 18:58:44 10° NE
Meteor 2-4 Rocket 3.8 18:48:41 10° N 18:54:32 71° ENE 19:00:26 10° SSE
Cosmos 1703 Rocket 3.7 18:50:25 10° N 18:54:43 51° ENE 18:58:58 10° SSE
Cosmos 2218 Rocket 4.4 18:49:43 10° SSE 18:55:35 40° E 19:01:27 10° NNE
SL-08 RB Rocket 3.6 18:51:38 10° SSE 18:56:09 83° ENE 19:00:43 10° N
Meteor 2-12 Rocket 4.5 18:51:03 10° S 18:57:07 86° W 19:03:15 10° N
Cosmos 1689 Rocket 3.2 18:54:30 10° N 18:57:17 45° WNW 19:00:03 10° SSW
Cosmos 1933 Rocket 3.5 18:57:33 10° S 19:01:54 89° E 19:06:19 10° N
BREEZE-M DEB (TANK) 3.9 19:02:04 10° SSW 19:03:36 25° S 19:03:36 25° S
Aureole 2 Rocket 2.9 19:03:00 10° NW 19:05:25 40° WSW 19:06:52 19° S
Resurs 01 Rocket 3.5 19:12:41 16° NE 19:12:41 16° NE 19:14:16 10° NNE
Cosmos 2242 Rocket 3.5 19:08:16 10° N 19:12:48 89° W 19:17:15 10° S
Cosmos 2322 Rocket 3.2 19:08:12 10° SW 19:13:34 46° WNW 19:19:00 10° NNE
Lacrosse 4 Rocket 2.4 19:11:33 10° S 19:14:29 31° SE 19:14:29 31° SE
Abrixas rocket 3.3 19:14:18 10° WNW 19:16:07 27° NNW 19:16:07 27° NNW
Cosmos 1959 Rocket 4.5 19:11:48 10° SSE 19:17:43 55° E 19:23:40 10° NNE
Helios 1A Rocket 4.1 19:14:45 10° S 19:18:37 43° W 19:22:29 10° NNW
SME Rocket 4.1 19:11:23 10° NNE 19:19:11 57° E 19:24:17 10° S
Cosmos 192 4.3 19:16:09 10° S 19:20:55 57° ESE 19:25:45 10° NNE
SJ-6B 2.8 19:22:30 49° SE 19:23:25 66° ENE 19:27:27 10° N
COSMOS 2428 3.0 19:18:26 10° S 19:23:42 41° ESE 19:24:51 37° ENE
GP-B 3.8 19:23:13 10° SSW 19:27:34 56° W 19:31:57 10° N
MOS 1 4.3 19:25:33 31° SE 19:28:15 61° ENE 19:33:52 10° N
ASTEX 1 3.3 19:23:26 10° NNE 19:28:16 57° E 19:30:11 34° SSE
Cosmos 2219 Rocket 2.1 19:25:12 10° S 19:30:38 56° ESE 19:36:07 10° NNE
Meteor 1-11 Rocket 3.6 19:25:16 10° S 19:30:55 65° E 19:36:30 10° NNE
MetOp-A 4.1 19:27:01 10° SSE 19:32:22 84° WSW 19:37:46 10° NNW
Cosmos 1241 Rocket 4.5 19:27:52 10° NNW 19:34:29 72° NE 19:36:55 41° SE
OBJECT-B 2.5 19:36:24 26° N 19:36:24 26° N 19:37:57 10° N
Resurs 1-3 4.1 19:38:47 44° NNE 19:38:47 44° NNE 19:42:12 10° N
SL-16 R/B 4.3 19:33:51 10° WSW 19:38:34 26° NW 19:43:19 10° N
SJ 16-02 2.9 19:37:20 10° N 19:39:34 24° NNE 19:39:34 24° NNE
SeaSat 1 3.6 19:36:43 10° NNE 19:41:23 43° NW 19:46:01 10° SW
Okean 1-7 3.8 19:37:39 10° NNW 19:41:54 51° W 19:45:45 12° SSW
Cosmos 1066 Rocket 4.1 19:38:32 10° N 19:44:15 70° ENE 19:45:40 51° SE
USA 234 3.2 19:39:53 23° NE 19:44:18 88° NW 19:50:51 10° SW
Meteor 1-13 Rocket 4.3 19:38:41 10° NNW 19:44:39 85° W 19:48:31 23° S
IRS-1A Rocket 4.2 19:46:43 35° SSE 19:49:14 88° WSW 19:54:50 10° NNW
CZ-2C R/B 4.0 19:44:11 10° N 19:49:15 39° WNW 19:54:11 10° SW
Cosmos 2322 3.7 19:44:54 10° SSW 19:50:38 82° WNW 19:56:24 10° NNE
BREEZE-M DEB (TANK) 3.2 19:48:29 10° WNW 19:51:09 47° N 19:51:09 47° N
SL-4 R/B 3.4 19:52:16 10° NW 19:54:13 29° NW 19:54:13 29° NW
Cosmos 1869 Rocket 4.1 19:51:57 10° SSW 19:56:14 57° W 20:00:34 10° N
SL-8 Rocket 4.5 19:52:30 10° SSW 19:58:39 60° WNW 20:04:48 10° N
Gbstr 26 Del rocket 4.3 19:56:01 10° WNW 20:00:35 39° N 20:00:59 39° NNE
ATLAS CENTAUR R/B 3.3 19:59:11 10° W 20:02:04 22° NW 20:03:10 19° NNW
Cosmos 1844 Rocket 4.4 20:09:17 10° NW 20:14:02 29° WSW 20:17:54 14° SSW
SL-08 R/B 4.4 20:11:58 38° S 20:14:39 90° SW 20:21:11 10° N
SPOT 3 Rocket 4.1 20:18:38 50° N 20:18:38 50° N 20:22:27 10° NNW
Ariane Rocket 4.0 20:22:16 39° SW 20:23:16 44° W 20:28:09 10° NNW
Cosmos 2360 Rocket 4.3 20:23:23 10° WSW 20:27:55 24° NW 20:32:29 10° N
Cosmos 2278 Rocket 3.0 20:26:33 10° NNW 20:30:28 45° N 20:30:28 45° N
Cosmos 2333 Rocket 3.3 20:32:30 10° SW 20:37:51 41° WNW 20:43:16 10° NNE
Resurs 01 Rocket 4.0 20:50:14 19° NNW 20:50:14 19° NNW 20:51:39 10° NNW
Cosmos 1943 Rocket 4.4 20:46:57 10° N 20:48:24 15° N 20:48:24 15° N
Lacrosse 4 Rocket 4.4 20:50:28 10° WSW 20:50:57 12° WSW 20:50:57 12° WSW
COSMOS 2428 4.2 21:02:57 10° WSW 21:14:01 - NNE 21:07:14 32° WNW
Cosmos 2219 Rocket 4.1 21:10:19 10° WSW 21:14:56 26° NW 21:19:35 10° N
SJ 16-02 4.4 21:16:07 10° NW 21:16:35 12° NW 21:16:35 12° NW
USA 234 4.3 21:27:16 39° NNW 21:27:16 39° NNW 21:32:50 10° W
